START_TIME,STEP,MOV.,P11,t_acc.,P23,t_acc.,P27,t_acc.,A4,t_acc.
1981-08-24 21:00:24.120 ,2,0,0.,4.8,0.,4.8,0.,4.8,0.,4.8
1981-08-24 21:00:28.920 ,2,0,0.,4.8,0.,4.8,0.,4.8,0.,4.8
1981-08-24 21:00:33.720 ,2,0,0.,4.8,0.,4.8,0.,4.8,0.,4.8
1981-08-24 21:00:38.520 ,2,0,0.,4.8,0.,4.8,0.,4.8,0.,4.8
1981-08-24 21:00:43.320 ,2,0,0.,4.8,0.,4.8,0.,4.8,0.,4.8
1981-08-24 21:00:48.120 ,1,0,0.,4.8,0.,4.8,0.,4.8,0.,4.8
1981-08-24 21:00:52.920 ,1,0,0.,4.8,0.,4.8,0.,4.8,0.,4.8
1981-08-24 21:00:57.720 ,1,0,0.,4.8,0.,4.8,0.,4.8,0.,4.8
1981-08-24 21:01:02.520 ,1,0,0.,4.8,0.,4.8,0.,4.8,0.,4.8
1981-08-24 21:01:07.320 ,1,0,0.,4.8,0.,4.8,0.,4.8,0.,4.8
1981-08-24 21:01:12.120 ,1,0,0.,4.8,0.,4.8,0.,4.8,0.,4.8
1981-08-24 21:01:16.920 ,1,0,0.,4.8,0.,4.8,0.,4.8,0.,4.8
1981-08-24 21:01:21.720 ,1,0,0.,4.8,0.,4.8,0.,4.8,0.,4.8
1981-08-24 21:01:26.520 ,1,0,0.,4.8,0.,4.8,0.,4.8,0.,4.8
1981-08-24 21:01:31.320 ,1,0,0.,4.8,0.,4.8,0.,4.8,0.,4.8
1981-08-24 21:01:36.120 ,0,0,0.,4.8,0.,4.8,0.,4.8,0.,4.8
1981-08-24 21:01:40.920 ,0,0,0.,4.8,0.,4.8,0.,4.8,0.,4.8
1981-08-24 21:01:45.720 ,0,0,0.,4.8,0.,4.8,0.,4.8,0.,4.8
1981-08-24 21:01:50.520 ,0,0,0.,4.8,0.,4.8,0.,4.8,0.,4.8
1981-08-24 21:01:55.320 ,0,0,0.,4.8,0.,4.8,0.,4.8,0.,4.8
1981-08-24 21:02:00.120 ,0,0,0.,4.8,0.,4.8,0.,4.8,0.,4.8
1981-08-24 21:02:04.920 ,0,0,0.,4.8,0.,4.8,0.,4.8,0.,4.8
1981-08-24 21:02:09.720 ,0,0,0.,4.8,0.,4.8,0.,4.8,0.,4.8
1981-08-24 21:02:14.520 ,0,0,0.,4.8,0.,4.8,0.,4.8,0.,4.8
1981-08-24 21:02:19.320 ,0,0,0.,4.8,0.,4.8,0.,4.8,0.,4.8
1981-08-24 21:02:24.120 ,0,0,0.,4.8,0.,4.8,0.,4.8,0.,4.8
1981-08-24 21:02:28.920 ,0,0,0.,4.8,0.,4.8,0.,4.8,0.,4.8
1981-08-24 21:02:33.720 ,0,0,0.,4.8,0.,4.8,0.,4.8,0.,4.8
1981-08-24 21:02:38.520 ,0,0,0.,4.8,0.,4.8,0.,4.8,0.,4.8
1981-08-24 21:02:43.320 ,0,0,0.,4.8,0.,4.8,0.,4.8,0.,4.8
1981-08-24 21:02:48.120 ,0,0,0.,4.8,0.,4.8,0.,4.8,0.,4.8
1981-08-24 21:02:52.920 ,0,0,0.,4.8,0.,4.8,0.,4.8,0.,4.8
1981-08-24 21:02:57.720 ,0,0,0.,4.8,0.,4.8,0.,4.8,0.,4.8
1981-08-24 21:03:02.520 ,0,0,0.,4.8,0.,4.8,0.,4.8,0.,4.8
1981-08-24 21:03:07.320 ,0,0,0.,4.8,0.,4.8,0.,4.8,0.,4.8
1981-08-24 21:03:12.120 ,1,0,0.,4.8,0.,4.8,0.,4.8,0.,4.8
1981-08-24 21:03:16.920 ,1,0,0.,4.8,0.,4.8,0.,4.8,0.,4.8
1981-08-24 21:03:21.720 ,1,0,0.,4.8,0.,4.8,0.,4.8,0.,4.8
1981-08-24 21:03:26.520 ,1,0,0.,4.8,0.,4.8,0.,4.8,0.,4.8
1981-08-24 21:03:31.320 ,1,0,0.,4.8,0.,4.8,0.,4.8,0.,4.8
1981-08-24 21:03:36.120 ,1,0,0.,4.8,0.,4.8,0.,4.8,0.,4.8
1981-08-24 21:03:40.920 ,1,0,0.,4.8,0.,4.8,0.,4.8,0.,4.8
1981-08-24 21:03:45.720 ,1,0,0.,4.8,0.,4.8,0.,4.8,0.,4.8
1981-08-24 21:03:50.520 ,1,0,0.,4.8,0.,4.8,0.,4.8,0.,4.8
1981-08-24 21:03:55.320 ,1,0,0.,4.8,0.,4.8,0.,4.8,0.,4.8
1981-08-24 21:04:00.120 ,2,0,0.,4.8,0.,4.8,0.,4.8,0.,4.8
1981-08-24 21:04:04.920 ,2,0,0.,4.8,0.,4.8,0.,4.8,0.,4.8
1981-08-24 21:04:09.720 ,2,0,0.,4.8,0.,4.8,0.,4.8,0.,4.8
1981-08-24 21:04:14.520 ,2,0,0.,4.8,0.,4.8,0.,4.8,0.,4.8
1981-08-24 21:04:19.320 ,2,0,0.,4.8,0.,4.8,0.,4.8,0.,4.8
1981-08-24 21:04:24.120 ,2,0,0.,4.8,0.,4.8,0.,4.8,0.,4.8
1981-08-24 21:04:28.920 ,2,0,0.,4.8,0.,4.8,0.,4.8,0.,4.8
1981-08-24 21:04:33.720 ,2,0,0.,4.8,0.,4.8,0.,4.8,0.,4.8
1981-08-24 21:04:38.520 ,2,0,0.,4.8,0.,4.8,0.,4.8,0.,4.8
1981-08-24 21:04:43.320 ,2,0,0.,4.8,0.,4.8,0.,4.8,0.,4.8
1981-08-24 21:04:48.120 ,3,0,0.,4.8,0.,4.8,0.,4.8,0.,4.8
1981-08-24 21:04:52.920 ,3,0,0.,4.8,0.,4.8,0.,4.8,0.,4.8
1981-08-24 21:04:57.720 ,3,0,0.,4.8,0.,4.8,0.,4.8,0.,4.8
1981-08-24 21:05:02.520 ,3,0,0.,4.8,0.,4.8,0.,4.8,0.,4.8
1981-08-24 21:05:07.320 ,3,0,0.,4.8,0.,4.8,0.,4.8,0.,4.8
1981-08-24 21:05:12.120 ,3,0,0.,4.8,0.,4.8,0.,4.8,0.,4.8
1981-08-24 21:05:16.920 ,3,0,0.,4.8,0.,4.8,0.,4.8,0.,4.8
1981-08-24 21:05:21.720 ,3,0,0.,4.8,0.,4.8,0.,4.8,0.,4.8
1981-08-24 21:05:26.520 ,3,0,0.,4.8,0.,4.8,0.,4.8,0.,4.8
1981-08-24 21:05:31.320 ,3,0,0.,4.8,0.,4.8,0.,4.8,0.,4.8
1981-08-24 21:05:36.120 ,4,0,0.,4.8,0.,4.8,0.,4.8,0.,4.8
1981-08-24 21:05:40.920 ,4,0,0.,4.8,0.,4.8,0.,4.8,0.,4.8
1981-08-24 21:05:45.720 ,4,0,0.,4.8,0.,4.8,0.,4.8,0.,4.8
1981-08-24 21:05:50.520 ,4,0,0.,4.8,0.,4.8,0.,4.8,0.,4.8
1981-08-24 21:05:55.320 ,4,0,0.,4.8,0.,4.8,0.,4.8,0.,4.8
1981-08-24 21:06:00.120 ,4,0,0.,4.8,0.,4.8,0.,4.8,0.,4.8
1981-08-24 21:06:04.920 ,4,0,0.,4.8,0.,4.8,0.,4.8,0.,4.8
1981-08-24 21:06:09.720 ,4,0,0.,4.8,0.,4.8,0.,4.8,0.,4.8
1981-08-24 21:06:14.520 ,4,0,0.,4.8,0.,4.8,0.,4.8,0.,4.8
1981-08-24 21:06:19.320 ,4,0,0.,4.8,0.,4.8,0.,4.8,0.,4.8
1981-08-24 21:06:24.120 ,5,0,0.,4.8,0.,4.8,0.,4.8,0.,4.8
1981-08-24 21:06:28.920 ,5,0,0.,4.8,0.,4.8,0.,4.8,0.,4.8
1981-08-24 21:06:33.720 ,5,0,0.,4.8,0.,4.8,0.,4.8,0.,4.8
1981-08-24 21:06:38.520 ,5,0,0.,4.8,0.,4.8,0.,4.8,0.,4.8
1981-08-24 21:06:43.320 ,5,0,0.,4.8,0.,4.8,0.,4.8,0.,4.8
1981-08-24 21:06:48.120 ,5,0,0.,4.8,0.,4.8,0.,4.8,0.,4.8
1981-08-24 21:06:52.920 ,5,0,0.,4.8,0.,4.8,0.,4.8,0.,4.8
1981-08-24 21:06:57.720 ,5,0,0.,4.8,0.,4.8,0.,4.8,0.,4.8
1981-08-24 21:07:02.520 ,5,0,0.,4.8,0.,4.8,0.,4.8,0.,4.8
1981-08-24 21:07:07.320 ,5,0,0.,4.8,0.,4.8,0.,4.8,0.,4.8
1981-08-24 21:07:12.120 ,6,0,0.,4.8,0.,4.8,0.,4.8,0.,4.8
1981-08-24 21:07:16.920 ,6,0,0.,4.8,0.,4.8,0.,4.8,0.,4.8
1981-08-24 21:07:21.720 ,6,0,0.,4.8,0.,4.8,0.,4.8,0.,4.8
1981-08-24 21:07:26.520 ,6,0,0.,4.8,0.,4.8,0.,4.8,0.,4.8
1981-08-24 21:07:31.320 ,6,0,0.,4.8,0.,4.8,0.,4.8,0.,4.8
1981-08-24 21:07:36.120 ,6,0,0.,4.8,0.,4.8,0.,4.8,0.,4.8
1981-08-24 21:07:40.920 ,6,0,0.,4.8,0.,4.8,0.,4.8,0.,4.8
1981-08-24 21:07:45.720 ,6,0,0.,4.8,0.,4.8,0.,4.8,0.,4.8
1981-08-24 21:07:50.520 ,6,0,0.,4.8,0.,4.8,0.,4.8,0.,4.8
1981-08-24 21:07:55.320 ,6,0,0.,4.8,0.,4.8,0.,4.8,0.,4.8
1981-08-24 21:08:00.120 ,7,0,0.,4.8,0.,4.8,0.,4.8,0.,4.8
1981-08-24 21:08:04.920 ,7,0,0.,4.8,0.,4.8,0.,4.8,0.,4.8
1981-08-24 21:08:09.720 ,7,0,0.,4.8,0.,4.8,0.,4.8,0.,4.8
1981-08-24 21:08:14.520 ,7,0,0.,4.8,0.,4.8,0.,4.8,0.,4.8
1981-08-24 21:08:19.320 ,7,0,0.,4.8,0.,4.8,0.,4.8,0.,4.8
1981-08-24 21:08:24.120 ,7,0,0.,4.8,0.,4.8,0.,4.8,0.,4.8
1981-08-24 21:08:28.920 ,7,0,0.,4.8,0.,4.8,0.,4.8,0.,4.8
1981-08-24 21:08:33.720 ,7,0,0.,4.8,0.,4.8,0.,4.8,0.,4.8
1981-08-24 21:08:38.520 ,7,0,0.,4.8,0.,4.8,0.,4.8,0.,4.8
1981-08-24 21:08:43.320 ,7,0,0.,4.8,0.,4.8,0.,4.8,0.,4.8
1981-08-24 21:08:48.120 ,7,0,0.,4.8,0.,4.8,0.,4.8,0.,4.8
1981-08-24 21:08:52.920 ,7,0,0.,4.8,0.,4.8,0.,4.8,0.,4.8
1981-08-24 21:08:57.720 ,7,0,0.,4.8,0.,4.8,0.,4.8,0.,4.8
1981-08-24 21:09:02.520 ,7,0,0.,4.8,0.,4.8,0.,4.8,0.,4.8
1981-08-24 21:09:07.320 ,7,0,0.,4.8,0.,4.8,0.,4.8,0.,4.8
1981-08-24 21:09:12.120 ,6,0,0.,4.8,0.,4.8,0.,4.8,0.,4.8
1981-08-24 21:09:16.920 ,6,0,0.,4.8,0.,4.8,0.,4.8,0.,4.8
1981-08-24 21:09:21.720 ,6,0,0.,4.8,0.,4.8,0.,4.8,0.,4.8
1981-08-24 21:09:26.520 ,6,0,0.,4.8,0.,4.8,0.,4.8,0.,4.8
1981-08-24 21:09:31.320 ,6,0,0.,4.8,0.,4.8,0.,4.8,0.,4.8
1981-08-24 21:09:36.120 ,5,0,0.,4.8,0.,4.8,0.,4.8,0.,4.8
1981-08-24 21:09:40.920 ,5,0,0.,4.8,0.,4.8,0.,4.8,0.,4.8
1981-08-24 21:09:45.720 ,5,0,0.,4.8,0.,4.8,0.,4.8,0.,4.8
1981-08-24 21:09:50.520 ,5,0,0.,4.8,0.,4.8,0.,4.8,0.,4.8
1981-08-24 21:09:55.320 ,5,0,0.,4.8,0.,4.8,0.,4.8,0.,4.8
1981-08-24 21:10:00.120 ,0,0,0.,4.8,0.,4.8,0.,4.8,0.,4.8
1981-08-24 21:10:04.920 ,0,0,0.,4.8,0.,4.8,0.,4.8,0.,4.8
1981-08-24 21:10:09.720 ,0,0,0.,4.8,0.,4.8,0.,4.8,0.,4.8
1981-08-24 21:10:14.520 ,0,0,0.,4.8,0.,4.8,0.,4.8,0.,4.8
1981-08-24 21:10:19.320 ,0,0,0.,4.8,0.,4.8,0.,4.8,0.,4.8
1981-08-24 21:10:54.720 ,0,0,,0,,0,,0,,0
1981-08-24 21:10:59.520 ,0,0,,0,,0,,0,,0
1981-08-24 21:11:04.320 ,0,0,0.,4.8,0.,4.8,0.,4.8,0.,4.8
1981-08-24 21:11:09.120 ,0,0,0.,4.8,0.,4.8,0.,4.8,0.,4.8
1981-08-24 21:11:13.920 ,0,0,0.,4.8,0.,4.8,0.,4.8,0.,4.8
1981-08-24 21:11:12.120 ,1,0,0.,4.8,0.,4.8,0.,4.8,0.,4.8
1981-08-24 21:11:16.920 ,1,0,0.,4.8,0.,4.8,0.,4.8,0.,4.8
1981-08-24 21:11:21.720 ,1,0,0.,4.8,0.,4.8,0.,4.8,0.,4.8
1981-08-24 21:11:26.520 ,1,0,0.,4.8,0.,4.8,0.,4.8,0.,4.8
1981-08-24 21:11:31.320 ,1,0,0.,4.8,0.,4.8,0.,4.8,0.,4.8
1981-08-24 21:11:36.120 ,0,0,0.,4.8,0.,4.8,0.,4.8,0.,4.8
1981-08-24 21:11:40.920 ,0,0,0.,4.8,0.,4.8,0.,4.8,0.,4.8
1981-08-24 21:11:45.720 ,0,0,0.,4.8,0.,4.8,0.,4.8,0.,4.8
1981-08-24 21:11:50.520 ,0,0,0.,4.8,0.,4.8,0.,4.8,0.,4.8
1981-08-24 21:11:55.320 ,0,0,0.,4.8,0.,4.8,0.,4.8,0.,4.8
1981-08-24 21:12:00.120 ,0,0,0.,4.8,0.,4.8,0.,4.8,0.,4.8
1981-08-24 21:12:04.920 ,0,0,0.,4.8,0.,4.8,0.,4.8,0.,4.8
1981-08-24 21:12:09.720 ,0,0,0.,4.8,0.,4.8,0.,4.8,0.,4.8
1981-08-24 21:12:14.520 ,0,0,0.,4.8,0.,4.8,0.,4.8,0.,4.8
1981-08-24 21:12:19.320 ,0,0,0.,4.8,0.,4.8,0.,4.8,0.,4.8
1981-08-24 21:12:24.120 ,1,0,0.,4.8,0.,4.8,0.,4.8,0.,4.8
1981-08-24 21:12:28.920 ,1,0,0.,4.8,0.,4.8,0.,4.8,0.,4.8
1981-08-24 21:12:33.720 ,1,0,0.,4.8,0.,4.8,0.,4.8,0.,4.8
1981-08-24 21:12:38.520 ,1,0,0.,4.8,0.,4.8,0.,4.8,0.,4.8
1981-08-24 21:12:43.320 ,1,0,0.,4.8,0.,4.8,0.,4.8,0.,4.8
1981-08-24 21:12:48.120 ,2,0,0.,4.8,0.,4.8,0.,4.8,0.,4.8
1981-08-24 21:12:52.920 ,2,0,0.,4.8,0.,4.8,0.,4.8,0.,4.8
1981-08-24 21:12:57.720 ,2,0,0.,4.8,0.,4.8,0.,4.8,0.,4.8
1981-08-24 21:13:02.520 ,2,0,0.,4.8,0.,4.8,0.,4.8,0.,4.8
1981-08-24 21:13:07.320 ,2,0,0.,4.8,0.,4.8,0.,4.8,0.,4.8
1981-08-24 21:13:12.120 ,3,0,0.,4.8,0.,4.8,0.,4.8,0.,4.8
1981-08-24 21:13:16.920 ,3,0,0.,4.8,0.,4.8,0.,4.8,0.,4.8
1981-08-24 21:13:21.720 ,3,0,0.,4.8,0.,4.8,0.,4.8,0.,4.8
1981-08-24 21:13:26.520 ,3,0,0.,4.8,0.,4.8,0.,4.8,0.,4.8
1981-08-24 21:13:31.320 ,3,0,0.,4.8,0.,4.8,0.,4.8,0.,4.8
1981-08-24 21:13:36.120 ,4,0,0.,4.8,0.,4.8,0.,4.8,0.,4.8
1981-08-24 21:13:40.920 ,4,0,0.,4.8,0.,4.8,0.,4.8,0.,4.8
1981-08-24 21:13:45.720 ,4,0,0.,4.8,0.,4.8,0.,4.8,1.,4.8
1981-08-24 21:13:50.520 ,4,0,0.,4.8,0.,4.8,0.,4.8,0.,4.8
1981-08-24 21:13:55.320 ,4,0,0.,4.8,0.,4.8,0.,4.8,0.,4.8
1981-08-24 21:14:00.120 ,5,0,0.,4.8,0.,4.8,0.,4.8,0.,4.8
1981-08-24 21:14:04.920 ,5,0,0.,4.8,0.,4.8,0.,4.8,0.,4.8
1981-08-24 21:14:09.720 ,5,0,0.,4.8,0.,4.8,0.,4.8,0.,4.8
1981-08-24 21:14:14.520 ,5,0,0.,4.8,0.,4.8,0.,4.8,0.,4.8
1981-08-24 21:14:19.320 ,5,0,0.,4.8,0.,4.8,0.,4.8,0.,4.8
1981-08-24 21:14:24.120 ,6,0,0.,4.8,0.,4.8,0.,4.8,0.,4.8
1981-08-24 21:14:28.920 ,6,0,0.,4.8,0.,4.8,0.,4.8,0.,4.8
1981-08-24 21:14:33.720 ,6,0,0.,4.8,0.,4.8,0.,4.8,0.,4.8
1981-08-24 21:14:38.520 ,6,0,0.,4.8,0.,4.8,0.,4.8,0.,4.8
1981-08-24 21:14:43.320 ,6,0,0.,4.8,0.,4.8,0.,4.8,0.,4.8
1981-08-24 21:14:48.120 ,7,0,0.,4.8,0.,4.8,0.,4.8,0.,4.8
1981-08-24 21:14:52.920 ,7,0,0.,4.8,0.,4.8,0.,4.8,0.,4.8
1981-08-24 21:14:57.720 ,7,0,0.,4.8,0.,4.8,0.,4.8,0.,4.8
1981-08-24 21:15:02.520 ,7,0,0.,4.8,0.,4.8,0.,4.8,0.,4.8
1981-08-24 21:15:07.320 ,7,0,0.,4.8,0.,4.8,0.,4.8,0.,4.8
1981-08-24 21:15:12.120 ,7,0,0.,4.8,0.,4.8,0.,4.8,0.,4.8
1981-08-24 21:15:16.920 ,7,0,0.,4.8,0.,4.8,0.,4.8,0.,4.8
1981-08-24 21:15:21.720 ,7,0,0.,4.8,0.,4.8,0.,4.8,0.,4.8
1981-08-24 21:15:26.520 ,7,0,0.,4.8,0.,4.8,0.,4.8,0.,4.8
1981-08-24 21:15:31.320 ,7,0,0.,4.8,0.,4.8,0.,4.8,0.,4.8
1981-08-24 21:15:36.120 ,7,0,0.,4.8,0.,4.8,0.,4.8,0.,4.8
1981-08-24 21:15:40.920 ,7,0,0.,4.8,0.,4.8,0.,4.8,0.,4.8
1981-08-24 21:15:45.720 ,7,0,0.,4.8,0.,4.8,0.,4.8,0.,4.8
1981-08-24 21:15:50.520 ,7,0,0.,4.8,0.,4.8,0.,4.8,0.,4.8
1981-08-24 21:15:55.320 ,7,0,0.,4.8,0.,4.8,0.,4.8,0.,4.8
1981-08-24 21:16:00.120 ,6,0,0.,4.8,0.,4.8,0.,4.8,0.,4.8
1981-08-24 21:16:04.920 ,6,0,0.,4.8,0.,4.8,0.,4.8,0.,4.8
1981-08-24 21:16:09.720 ,6,0,0.,4.8,0.,4.8,0.,4.8,0.,4.8
1981-08-24 21:16:14.520 ,6,0,0.,4.8,0.,4.8,0.,4.8,0.,4.8
1981-08-24 21:16:19.320 ,6,0,0.,4.8,0.,4.8,0.,4.8,0.,4.8
1981-08-24 21:16:24.120 ,6,0,0.,4.8,0.,4.8,0.,4.8,0.,4.8
1981-08-24 21:16:28.920 ,6,0,0.,4.8,0.,4.8,0.,4.8,0.,4.8
1981-08-24 21:16:33.720 ,6,0,0.,4.8,0.,4.8,0.,4.8,0.,4.8
1981-08-24 21:16:38.520 ,6,0,0.,4.8,0.,4.8,0.,4.8,0.,4.8
1981-08-24 21:16:43.320 ,6,0,0.,4.8,0.,4.8,0.,4.8,0.,4.8
1981-08-24 21:16:48.120 ,5,0,0.,4.8,0.,4.8,0.,4.8,0.,4.8
1981-08-24 21:16:52.920 ,5,0,0.,4.8,0.,4.8,0.,4.8,0.,4.8
1981-08-24 21:16:57.720 ,5,0,0.,4.8,0.,4.8,0.,4.8,0.,4.8
1981-08-24 21:17:02.520 ,5,0,0.,4.8,0.,4.8,0.,4.8,0.,4.8
1981-08-24 21:17:07.320 ,5,0,0.,4.8,0.,4.8,0.,4.8,0.,4.8
1981-08-24 21:17:12.120 ,5,0,0.,4.8,0.,4.8,0.,4.8,0.,4.8
1981-08-24 21:17:16.920 ,5,0,0.,4.8,0.,4.8,0.,4.8,0.,4.8
1981-08-24 21:17:21.720 ,5,0,0.,4.8,0.,4.8,0.,4.8,0.,4.8
1981-08-24 21:17:26.520 ,5,0,0.,4.8,0.,4.8,0.,4.8,0.,4.8
1981-08-24 21:17:31.320 ,5,0,0.,4.8,0.,4.8,0.,4.8,0.,4.8
1981-08-24 21:17:36.120 ,4,0,0.,4.8,0.,4.8,0.,4.8,0.,4.8
1981-08-24 21:17:40.920 ,4,0,0.,4.8,0.,4.8,0.,4.8,0.,4.8
1981-08-24 21:17:45.720 ,4,0,0.,4.8,0.,4.8,0.,4.8,0.,4.8
1981-08-24 21:17:50.520 ,4,0,0.,4.8,0.,4.8,0.,4.8,0.,4.8
1981-08-24 21:17:55.320 ,4,0,0.,4.8,0.,4.8,0.,4.8,0.,4.8
1981-08-24 21:18:00.120 ,4,0,0.,4.8,0.,4.8,0.,4.8,0.,4.8
1981-08-24 21:18:04.920 ,4,0,0.,4.8,0.,4.8,0.,4.8,0.,4.8
1981-08-24 21:18:09.720 ,4,0,0.,4.8,0.,4.8,0.,4.8,0.,4.8
1981-08-24 21:18:14.520 ,4,0,0.,4.8,0.,4.8,0.,4.8,0.,4.8
1981-08-24 21:18:19.320 ,4,0,0.,4.8,0.,4.8,0.,4.8,0.,4.8
1981-08-24 21:18:24.120 ,3,0,0.,4.8,0.,4.8,0.,4.8,0.,4.8
1981-08-24 21:18:28.920 ,3,0,0.,4.8,0.,4.8,0.,4.8,0.,4.8
1981-08-24 21:18:33.720 ,3,0,0.,4.8,0.,4.8,0.,4.8,0.,4.8
1981-08-24 21:18:38.520 ,3,0,0.,4.8,0.,4.8,0.,4.8,0.,4.8
1981-08-24 21:18:43.320 ,3,0,0.,4.8,0.,4.8,0.,4.8,0.,4.8
1981-08-24 21:18:48.120 ,3,0,0.,4.8,0.,4.8,0.,4.8,0.,4.8
1981-08-24 21:18:52.920 ,3,0,0.,4.8,0.,4.8,0.,4.8,0.,4.8
1981-08-24 21:18:57.720 ,3,0,0.,4.8,0.,4.8,0.,4.8,0.,4.8
1981-08-24 21:19:02.520 ,3,0,0.,4.8,0.,4.8,0.,4.8,0.,4.8
1981-08-24 21:19:07.320 ,3,0,0.,4.8,0.,4.8,0.,4.8,0.,4.8
1981-08-24 21:19:12.120 ,2,0,0.,4.8,0.,4.8,0.,4.8,0.,4.8
1981-08-24 21:19:16.920 ,2,0,0.,4.8,0.,4.8,0.,4.8,0.,4.8
1981-08-24 21:19:21.720 ,2,0,0.,4.8,0.,4.8,0.,4.8,0.,4.8
1981-08-24 21:19:26.520 ,2,0,0.,4.8,0.,4.8,0.,4.8,0.,4.8
1981-08-24 21:19:31.320 ,2,0,0.,4.8,0.,4.8,0.,4.8,0.,4.8
1981-08-24 21:19:36.120 ,2,0,0.,4.8,0.,4.8,0.,4.8,0.,4.8
1981-08-24 21:19:40.920 ,2,0,0.,4.8,0.,4.8,0.,4.8,0.,4.8
1981-08-24 21:19:45.720 ,2,0,0.,4.8,0.,4.8,0.,4.8,0.,4.8
1981-08-24 21:19:50.520 ,2,0,0.,4.8,0.,4.8,0.,4.8,0.,4.8
1981-08-24 21:19:55.320 ,2,0,0.,4.8,0.,4.8,0.,4.8,0.,4.8
1981-08-24 21:20:00.120 ,1,0,0.,4.8,0.,4.8,0.,4.8,0.,4.8
1981-08-24 21:20:04.920 ,1,0,0.,4.8,0.,4.8,0.,4.8,0.,4.8
1981-08-24 21:20:09.720 ,1,0,0.,4.8,0.,4.8,0.,4.8,0.,4.8
1981-08-24 21:20:14.520 ,1,0,0.,4.8,0.,4.8,0.,4.8,0.,4.8
1981-08-24 21:20:19.320 ,1,0,0.,4.8,0.,4.8,0.,4.8,0.,4.8
1981-08-24 21:20:24.120 ,1,0,0.,4.8,0.,4.8,0.,4.8,0.,4.8
1981-08-24 21:20:28.920 ,1,0,0.,4.8,0.,4.8,0.,4.8,0.,4.8
1981-08-24 21:20:33.720 ,1,0,0.,4.8,0.,4.8,0.,4.8,0.,4.8
1981-08-24 21:20:38.520 ,1,0,0.,4.8,0.,4.8,0.,4.8,0.,4.8
1981-08-24 21:20:43.320 ,1,0,0.,4.8,0.,4.8,0.,4.8,0.,4.8
1981-08-24 21:20:48.120 ,0,0,0.,4.8,0.,4.8,0.,4.8,0.,4.8
1981-08-24 21:20:52.920 ,0,0,0.,4.8,0.,4.8,0.,4.8,0.,4.8
1981-08-24 21:20:57.720 ,0,0,0.,4.8,0.,4.8,0.,4.8,0.,4.8
1981-08-24 21:21:02.520 ,0,0,0.,4.8,0.,4.8,0.,4.8,0.,4.8
1981-08-24 21:21:07.320 ,0,0,0.,4.8,0.,4.8,0.,4.8,0.,4.8
1981-08-24 21:21:12.120 ,0,0,0.,4.8,0.,4.8,0.,4.8,0.,4.8
1981-08-24 21:21:16.920 ,0,0,0.,4.8,0.,4.8,0.,4.8,0.,4.8
1981-08-24 21:21:21.720 ,0,0,0.,4.8,0.,4.8,0.,4.8,0.,4.8
1981-08-24 21:21:26.520 ,0,0,0.,4.8,0.,4.8,0.,4.8,0.,4.8
1981-08-24 21:21:31.320 ,0,0,0.,4.8,0.,4.8,0.,4.8,0.,4.8
1981-08-24 21:21:36.120 ,0,0,0.,4.8,0.,4.8,0.,4.8,0.,4.8
1981-08-24 21:21:40.920 ,0,0,0.,4.8,0.,4.8,0.,4.8,0.,4.8
1981-08-24 21:21:45.720 ,0,0,0.,4.8,0.,4.8,0.,4.8,0.,4.8
1981-08-24 21:21:50.520 ,0,0,0.,4.8,0.,4.8,0.,4.8,0.,4.8
1981-08-24 21:21:55.320 ,0,0,0.,4.8,0.,4.8,0.,4.8,0.,4.8
1981-08-24 21:22:00.120 ,0,0,0.,4.8,0.,4.8,0.,4.8,0.,4.8
1981-08-24 21:22:04.920 ,0,0,0.,4.8,0.,4.8,0.,4.8,0.,4.8
1981-08-24 21:22:09.720 ,0,0,0.,4.8,0.,4.8,0.,4.8,0.,4.8
1981-08-24 21:22:14.520 ,0,0,0.,4.8,0.,4.8,0.,4.8,0.,4.8
1981-08-24 21:22:19.320 ,0,0,0.,4.8,0.,4.8,0.,4.8,0.,4.8
1981-08-24 21:22:24.120 ,1,0,0.,4.8,0.,4.8,0.,4.8,0.,4.8
1981-08-24 21:22:28.920 ,1,0,0.,4.8,0.,4.8,0.,4.8,0.,4.8
1981-08-24 21:22:33.720 ,1,0,0.,4.8,0.,4.8,0.,4.8,0.,4.8
1981-08-24 21:22:38.520 ,1,0,0.,4.8,0.,4.8,0.,4.8,0.,4.8
1981-08-24 21:22:43.320 ,1,0,0.,4.8,0.,4.8,0.,4.8,0.,4.8
1981-08-24 21:22:48.120 ,1,0,0.,4.8,0.,4.8,0.,4.8,0.,4.8
1981-08-24 21:22:52.920 ,1,0,0.,4.8,0.,4.8,0.,4.8,0.,4.8
1981-08-24 21:22:57.720 ,1,0,0.,4.8,0.,4.8,0.,4.8,0.,4.8
1981-08-24 21:23:02.520 ,1,0,0.,4.8,0.,4.8,0.,4.8,0.,4.8
1981-08-24 21:23:07.320 ,1,0,0.,4.8,0.,4.8,0.,4.8,0.,4.8
1981-08-24 21:23:12.120 ,2,0,0.,4.8,0.,4.8,0.,4.8,0.,4.8
1981-08-24 21:23:16.920 ,2,0,0.,4.8,0.,4.8,0.,4.8,0.,4.8
1981-08-24 21:23:21.720 ,2,0,0.,4.8,0.,4.8,0.,4.8,0.,4.8
1981-08-24 21:23:26.520 ,2,0,0.,4.8,0.,4.8,0.,4.8,0.,4.8
1981-08-24 21:23:31.320 ,2,0,0.,4.8,0.,4.8,0.,4.8,0.,4.8
1981-08-24 21:23:36.120 ,2,0,0.,4.8,0.,4.8,0.,4.8,0.,4.8
1981-08-24 21:23:40.920 ,2,0,0.,4.8,0.,4.8,0.,4.8,0.,4.8
1981-08-24 21:23:45.720 ,2,0,0.,4.8,0.,4.8,0.,4.8,0.,4.8
1981-08-24 21:23:50.520 ,2,0,0.,4.8,0.,4.8,0.,4.8,0.,4.8
1981-08-24 21:23:55.320 ,2,0,0.,4.8,0.,4.8,0.,4.8,0.,4.8
1981-08-24 21:24:00.120 ,3,0,0.,4.8,0.,4.8,0.,4.8,0.,4.8
1981-08-24 21:24:04.920 ,3,0,0.,4.8,0.,4.8,0.,4.8,0.,4.8
1981-08-24 21:24:09.720 ,3,0,0.,4.8,0.,4.8,0.,4.8,0.,4.8
1981-08-24 21:24:14.520 ,3,0,0.,4.8,0.,4.8,0.,4.8,0.,4.8
1981-08-24 21:24:19.320 ,3,0,0.,4.8,0.,4.8,0.,4.8,0.,4.8
1981-08-24 21:24:24.120 ,3,0,0.,4.8,0.,4.8,0.,4.8,0.,4.8
1981-08-24 21:24:28.920 ,3,0,0.,4.8,0.,4.8,0.,4.8,0.,4.8
1981-08-24 21:24:33.720 ,3,0,0.,4.8,0.,4.8,0.,4.8,0.,4.8
1981-08-24 21:24:38.520 ,3,0,0.,4.8,0.,4.8,0.,4.8,0.,4.8
1981-08-24 21:24:43.320 ,3,0,0.,4.8,0.,4.8,0.,4.8,0.,4.8
1981-08-24 21:24:48.120 ,4,0,0.,4.8,0.,4.8,0.,4.8,0.,4.8
1981-08-24 21:24:52.920 ,4,0,0.,4.8,0.,4.8,0.,4.8,0.,4.8
1981-08-24 21:24:57.720 ,4,0,0.,4.8,0.,4.8,0.,4.8,0.,4.8
1981-08-24 21:25:02.520 ,4,0,0.,4.8,0.,4.8,0.,4.8,0.,4.8
1981-08-24 21:25:07.320 ,4,0,0.,4.8,0.,4.8,0.,4.8,0.,4.8
1981-08-24 21:25:12.120 ,4,0,0.,4.8,0.,4.8,0.,4.8,0.,4.8
1981-08-24 21:25:16.920 ,4,0,0.,4.8,0.,4.8,0.,4.8,0.,4.8
1981-08-24 21:25:21.720 ,4,0,0.,4.8,0.,4.8,0.,4.8,0.,4.8
1981-08-24 21:25:26.520 ,4,0,0.,4.8,0.,4.8,0.,4.8,0.,4.8
1981-08-24 21:25:31.320 ,4,0,0.,4.8,0.,4.8,0.,4.8,0.,4.8
1981-08-24 21:25:36.120 ,5,0,0.,4.8,0.,4.8,0.,4.8,0.,4.8
1981-08-24 21:25:40.920 ,5,0,0.,4.8,0.,4.8,0.,4.8,0.,4.8
1981-08-24 21:25:45.720 ,5,0,0.,4.8,0.,4.8,0.,4.8,0.,4.8
1981-08-24 21:25:50.520 ,5,0,0.,4.8,0.,4.8,0.,4.8,0.,4.8
1981-08-24 21:25:55.320 ,5,0,0.,4.8,0.,4.8,0.,4.8,0.,4.8
1981-08-24 21:26:00.120 ,5,0,0.,4.8,0.,4.8,0.,4.8,0.,4.8
1981-08-24 21:26:04.920 ,5,0,0.,4.8,0.,4.8,0.,4.8,0.,4.8
1981-08-24 21:26:09.720 ,5,0,0.,4.8,0.,4.8,0.,4.8,0.,4.8
1981-08-24 21:26:14.520 ,5,0,0.,4.8,0.,4.8,0.,4.8,0.,4.8
1981-08-24 21:26:19.320 ,5,0,0.,4.8,0.,4.8,0.,4.8,0.,4.8
1981-08-24 21:26:24.120 ,6,0,0.,4.8,0.,4.8,0.,4.8,0.,4.8
1981-08-24 21:26:28.920 ,6,0,0.,4.8,0.,4.8,0.,4.8,0.,4.8
1981-08-24 21:26:33.720 ,6,0,0.,4.8,0.,4.8,0.,4.8,0.,4.8
1981-08-24 21:26:38.520 ,6,0,0.,4.8,0.,4.8,0.,4.8,0.,4.8
1981-08-24 21:26:43.320 ,6,0,0.,4.8,0.,4.8,0.,4.8,0.,4.8
1981-08-24 21:26:48.120 ,6,0,0.,4.8,0.,4.8,0.,4.8,0.,4.8
1981-08-24 21:26:52.920 ,6,0,0.,4.8,0.,4.8,0.,4.8,0.,4.8
1981-08-24 21:26:57.720 ,6,0,0.,4.8,0.,4.8,0.,4.8,0.,4.8
1981-08-24 21:27:02.520 ,6,0,0.,4.8,0.,4.8,0.,4.8,0.,4.8
1981-08-24 21:27:07.320 ,6,0,0.,4.8,0.,4.8,0.,4.8,0.,4.8
1981-08-24 21:27:12.120 ,7,0,0.,4.8,0.,4.8,0.,4.8,0.,4.8
1981-08-24 21:27:16.920 ,7,0,0.,4.8,0.,4.8,0.,4.8,0.,4.8
1981-08-24 21:27:21.720 ,7,0,0.,4.8,0.,4.8,0.,4.8,0.,4.8
1981-08-24 21:27:26.520 ,7,0,0.,4.8,0.,4.8,0.,4.8,0.,4.8
1981-08-24 21:27:31.320 ,7,0,0.,4.8,0.,4.8,0.,4.8,0.,4.8
1981-08-24 21:27:36.120 ,7,0,0.,4.8,0.,4.8,0.,4.8,0.,4.8
1981-08-24 21:27:40.920 ,7,0,0.,4.8,0.,4.8,0.,4.8,0.,4.8
1981-08-24 21:27:45.720 ,7,0,0.,4.8,0.,4.8,0.,4.8,0.,4.8
1981-08-24 21:27:50.520 ,7,0,0.,4.8,0.,4.8,0.,4.8,0.,4.8
1981-08-24 21:27:55.320 ,7,0,0.,4.8,0.,4.8,0.,4.8,0.,4.8
1981-08-24 21:28:00.120 ,7,0,0.,4.8,0.,4.8,0.,4.8,0.,4.8
1981-08-24 21:28:04.920 ,7,0,0.,4.8,0.,4.8,0.,4.8,0.,4.8
1981-08-24 21:28:09.720 ,7,0,0.,4.8,0.,4.8,0.,4.8,0.,4.8
1981-08-24 21:28:14.520 ,7,0,0.,4.8,0.,4.8,0.,4.8,0.,4.8
1981-08-24 21:28:19.320 ,7,0,0.,4.8,0.,4.8,0.,4.8,0.,4.8
1981-08-24 21:28:24.120 ,6,0,0.,4.8,0.,4.8,0.,4.8,0.,4.8
1981-08-24 21:28:28.920 ,6,0,0.,4.8,0.,4.8,0.,4.8,0.,4.8
1981-08-24 21:28:33.720 ,6,0,0.,4.8,0.,4.8,0.,4.8,0.,4.8
1981-08-24 21:28:38.520 ,6,0,0.,4.8,0.,4.8,0.,4.8,0.,4.8
1981-08-24 21:28:43.320 ,6,0,0.,4.8,0.,4.8,0.,4.8,0.,4.8
1981-08-24 21:28:48.120 ,5,0,0.,4.8,0.,4.8,0.,4.8,0.,4.8
1981-08-24 21:28:52.920 ,5,0,0.,4.8,0.,4.8,0.,4.8,0.,4.8
1981-08-24 21:28:57.720 ,5,0,0.,4.8,0.,4.8,0.,4.8,0.,4.8
1981-08-24 21:29:02.520 ,5,0,0.,4.8,0.,4.8,0.,4.8,0.,4.8
1981-08-24 21:29:07.320 ,5,0,0.,4.8,0.,4.8,0.,4.8,0.,4.8
1981-08-24 21:29:12.120 ,4,0,0.,4.8,0.,4.8,0.,4.8,0.,4.8
1981-08-24 21:29:16.920 ,4,0,0.,4.8,0.,4.8,0.,4.8,0.,4.8
1981-08-24 21:29:21.720 ,4,0,0.,4.8,0.,4.8,0.,4.8,0.,4.8
1981-08-24 21:29:26.520 ,4,0,0.,4.8,0.,4.8,0.,4.8,0.,4.8
1981-08-24 21:29:31.320 ,4,0,0.,4.8,0.,4.8,0.,4.8,0.,4.8
1981-08-24 21:29:36.120 ,3,0,0.,4.8,0.,4.8,0.,4.8,0.,4.8
1981-08-24 21:29:40.920 ,3,0,0.,4.8,0.,4.8,0.,4.8,0.,4.8
1981-08-24 21:29:45.720 ,3,0,0.,4.8,0.,4.8,0.,4.8,0.,4.8
1981-08-24 21:29:50.520 ,3,0,0.,4.8,0.,4.8,0.,4.8,0.,4.8
1981-08-24 21:29:55.320 ,3,0,0.,4.8,0.,4.8,0.,4.8,0.,4.8
1981-08-24 21:30:00.120 ,2,0,0.,4.8,0.,4.8,0.,4.8,0.,4.8
1981-08-24 21:30:04.920 ,2,0,0.,4.8,0.,4.8,0.,4.8,0.,4.8
1981-08-24 21:30:09.720 ,2,0,0.,4.8,0.,4.8,0.,4.8,0.,4.8
1981-08-24 21:30:14.520 ,2,0,0.,4.8,0.,4.8,0.,4.8,0.,4.8
1981-08-24 21:30:19.320 ,2,0,0.,4.8,0.,4.8,0.,4.8,0.,4.8
1981-08-24 21:30:24.120 ,1,0,0.,4.8,0.,4.8,0.,4.8,0.,4.8
1981-08-24 21:30:28.920 ,1,0,0.,4.8,0.,4.8,0.,4.8,0.,4.8
1981-08-24 21:30:33.720 ,1,0,0.,4.8,0.,4.8,0.,4.8,0.,4.8
1981-08-24 21:30:38.520 ,1,0,0.,4.8,0.,4.8,0.,4.8,0.,4.8
1981-08-24 21:30:43.320 ,1,0,0.,4.8,0.,4.8,0.,4.8,0.,4.8
1981-08-24 21:30:48.120 ,0,0,0.,4.8,0.,4.8,0.,4.8,0.,4.8
1981-08-24 21:30:52.920 ,0,0,0.,4.8,0.,4.8,0.,4.8,0.,4.8
1981-08-24 21:30:57.720 ,0,0,0.,4.8,0.,4.8,0.,4.8,0.,4.8
1981-08-24 21:31:02.520 ,0,0,0.,4.8,0.,4.8,0.,4.8,0.,4.8
1981-08-24 21:31:07.320 ,0,0,0.,4.8,0.,4.8,0.,4.8,0.,4.8
1981-08-24 21:31:12.120 ,0,0,0.,4.8,0.,4.8,0.,4.8,0.,4.8
1981-08-24 21:31:16.920 ,0,0,0.,4.8,0.,4.8,0.,4.8,0.,4.8
1981-08-24 21:31:21.720 ,0,0,0.,4.8,0.,4.8,0.,4.8,0.,4.8
1981-08-24 21:31:26.520 ,0,0,0.,4.8,0.,4.8,0.,4.8,0.,4.8
1981-08-24 21:31:31.320 ,0,0,0.,4.8,0.,4.8,0.,4.8,0.,4.8
1981-08-24 21:31:36.120 ,1,0,0.,4.8,0.,4.8,0.,4.8,0.,4.8
1981-08-24 21:31:40.920 ,1,0,0.,4.8,0.,4.8,0.,4.8,0.,4.8
1981-08-24 21:31:45.720 ,1,0,0.,4.8,0.,4.8,0.,4.8,0.,4.8
1981-08-24 21:31:50.520 ,1,0,0.,4.8,0.,4.8,0.,4.8,0.,4.8
1981-08-24 21:31:55.320 ,1,0,0.,4.8,0.,4.8,0.,4.8,0.,4.8
1981-08-24 21:32:00.120 ,2,0,0.,4.8,0.,4.8,0.,4.8,0.,4.8
1981-08-24 21:32:04.920 ,2,0,0.,4.8,0.,4.8,0.,4.8,0.,4.8
1981-08-24 21:32:09.720 ,2,0,0.,4.8,0.,4.8,0.,4.8,0.,4.8
1981-08-24 21:32:14.520 ,2,0,0.,4.8,0.,4.8,0.,4.8,0.,4.8
1981-08-24 21:32:19.320 ,2,0,0.,4.8,0.,4.8,0.,4.8,0.,4.8
1981-08-24 21:32:24.120 ,3,0,0.,4.8,0.,4.8,0.,4.8,0.,4.8
1981-08-24 21:32:28.920 ,3,0,0.,4.8,0.,4.8,0.,4.8,0.,4.8
1981-08-24 21:32:33.720 ,3,0,0.,4.8,0.,4.8,0.,4.8,0.,4.8
1981-08-24 21:32:38.520 ,3,0,0.,4.8,0.,4.8,0.,4.8,0.,4.8
1981-08-24 21:32:43.320 ,3,0,0.,4.8,0.,4.8,0.,4.8,0.,4.8
1981-08-24 21:32:48.120 ,4,0,0.,4.8,0.,4.8,0.,4.8,0.,4.8
1981-08-24 21:32:52.920 ,4,0,0.,4.8,0.,4.8,0.,4.8,0.,4.8
1981-08-24 21:32:57.720 ,4,0,0.,4.8,0.,4.8,0.,4.8,0.,4.8
1981-08-24 21:33:02.520 ,4,0,0.,4.8,0.,4.8,0.,4.8,0.,4.8
1981-08-24 21:33:07.320 ,4,0,0.,4.8,0.,4.8,0.,4.8,0.,4.8
1981-08-24 21:33:12.120 ,5,0,0.,4.8,0.,4.8,0.,4.8,0.,4.8
1981-08-24 21:33:16.920 ,5,0,0.,4.8,0.,4.8,0.,4.8,0.,4.8
1981-08-24 21:33:21.720 ,5,0,0.,4.8,0.,4.8,0.,4.8,0.,4.8
1981-08-24 21:33:26.520 ,5,0,0.,4.8,0.,4.8,0.,4.8,0.,4.8
1981-08-24 21:33:31.320 ,5,0,0.,4.8,0.,4.8,0.,4.8,0.,4.8
1981-08-24 21:33:36.120 ,6,0,0.,4.8,0.,4.8,0.,4.8,0.,4.8
1981-08-24 21:33:40.920 ,6,0,0.,4.8,0.,4.8,0.,4.8,0.,4.8
1981-08-24 21:33:45.720 ,6,0,0.,4.8,0.,4.8,0.,4.8,0.,4.8